This is the latest recevied weather packets stored in our database for station/object K2RMB. If no packets are shown the sender has not sent any weather packets the latest 10 day(s).
| Time | Temp. | Humidity | Pressure | Rain* | Wind** | Luminosity | Snow |
|---|---|---|---|---|---|---|---|
| 1777019925 | 4.44° C | 57% | 1011.8 hPa | 0 mm | - | 0 W/m² | - |
| 1777019621 | 4.44° C | 56% | 1011.5 hPa | 0 mm | - | 0 W/m² | - |
| 1777019319 | 4.44° C | 55% | 1011.5 hPa | 0 mm | - | 0 W/m² | - |
| 1777019014 | 5° C | 54% | 1011.5 hPa | 0 mm | - | 0 W/m² | - |
| 1777018712 | 5° C | 53% | 1011.5 hPa | 0 mm | - | 0 W/m² | - |
| 1777018409 | 5.56° C | 52% | 1011.5 hPa | 0 mm | - | 0 W/m² | - |
| 1777018106 | 5.56° C | 51% | 1011.1 hPa | 0 mm | - | 0 W/m² | - |
| 1777017801 | 5.56° C | 51% | 1011.1 hPa | 0 mm | - | 0 W/m² | - |
| 1777017499 | 6.11° C | 54% | 1011.5 hPa | 0 mm | - | 0 W/m² | - |
| 1777017195 | 6.11° C | 53% | 1011.5 hPa | 0 mm | - | 0 W/m² | - |
| 1777016891 | 6.11° C | 52% | 1011.5 hPa | 0 mm | - | 0 W/m² | - |
| 1777016588 | 6.67° C | 55% | 1011.1 hPa | 0 mm | - | 0 W/m² | - |
| 1777016284 | 6.67° C | 50% | 1010.8 hPa | 0 mm | - | 0 W/m² | - |
| 1777015982 | 6.67° C | 51% | 1010.8 hPa | 0 mm | - | 0 W/m² | - |
| 1777015678 | 6.67° C | 47% | 1010.8 hPa | 0 mm | - | 0 W/m² | - |
| 1777015375 | 7.22° C | 50% | 1010.8 hPa | 0 mm | - | 0 W/m² | - |
| 1777015071 | 7.22° C | 43% | 1010.8 hPa | 0 mm | - | 0 W/m² | - |
| 1777014771 | 6.67° C | 53% | 1010.8 hPa | 0 mm | - | 0 W/m² | - |
| 1777014466 | 6.67° C | 53% | 1010.8 hPa | 0 mm | - | 0 W/m² | - |
| 1777014161 | 6.67° C | 53% | 1010.8 hPa | 0 mm | - | 0 W/m² | - |
| 1777013857 | 7.22° C | 50% | 1010.8 hPa | 0 mm | - | 0 W/m² | - |
| 1777013555 | 7.22° C | 58% | 1010.8 hPa | 0 mm | - | 0 W/m² | - |
| 1777013252 | 7.22° C | 48% | 1010.8 hPa | 0 mm | - | 0 W/m² | - |
| 1777012949 | 7.22° C | 47% | 1010.4 hPa | 0 mm | - | 0 W/m² | - |
| 1777012645 | 7.78° C | 53% | 1010.4 hPa | 0 mm | - | 0 W/m² | - |
* Rain latest hour (hover to see other rain measurements)
** Current wind speed in m/s (hover to see current wind gust speed)